Weather History for Brize Norton, United Kingdom

Change the Weather History Date:

Thursday, December 26, 2013

  Actual Average Record
Temperature  
Mean Temperature 40 °F -  
Max Temperature 45 °F 44 °F 53 °F (1998)
Min Temperature 35 °F 34 °F 14 °F (2010)
Degree Days  
Heating Degree Days 25    
Moisture  
Dew Point 38 °F    
Average Humidity 90    
Maximum Humidity 100    
Minimum Humidity 73    
Precipitation  
Precipitation 0.01 in - - ()
Sea Level Pressure  
Sea Level Pressure 29.35 in    
Wind  
Wind Speed 4 mph ()    
Max Wind Speed 20 mph    
Max Gust Speed 33 mph    
Visibility 6.3 miles    
Events Rain    
Averages and records for this station are not official NWS values.
T = Trace of Precipitation, MM = Missing Value Source: Averaged Metar Reports

Daily Weather History Graph

Daily Weather History Graph

Search for Another Location

Airport:

Trip Planner

Search our weather history database for the weather conditions in past years. The results will help you decide how hot, cold, wet, or windy it might be!

Date:

Astronomy

Dec. 26, 2013 Rise Set
Actual Time 8:12 AM GMT 4:01 PM GMT
Civil Twilight 7:32 AM GMT 4:41 PM GMT
Nautical Twilight 6:48 AM GMT 5:25 PM GMT
Astronomical Twilight 6:07 AM GMT 6:06 PM GMT
Moon 12:51 AM GMT (12/26) 12:00 PM GMT (12/26)
Length of Visible Light 9h 09m
Length of Day
7h 48m
Last Quarter, 41% of the Moon is Illuminated
Dec 26
Last Quarter
Jan 1
New
Jan 8
First Quarter
Jan 16
Full
Jan 24
Last Quarter

Hourly Weather History & Observations

Time (GMT) Temp. Windchill Dew Point Humidity Pressure Visibility Wind Dir Wind Speed Gust Speed Precip Events Conditions
12:00 AM 38 °F - 37 °F 96% 29.18 in 7 mi NE 4.6 mph - -   Partly Cloudy
12:50 AM 37.4 °F - 37.4 °F 100% 29.18 in 5.0 mi ESE 2.3 mph - N/A Rain Light Rain
1:00 AM 38 °F - 37 °F 96% 29.20 in 5 mi ESE 2.3 mph - - Rain Light Rain
1:50 AM 37.4 °F - 37.4 °F 100% 29.18 in 5.0 mi South 1.2 mph - N/A   Light Drizzle
2:00 AM 38 °F - 37 °F 96% 29.21 in 5 mi South 1.2 mph - - Rain Light Drizzle
2:50 AM 37.4 °F - 37.4 °F 100% 29.21 in 4.3 mi West 2.3 mph - N/A   Light Drizzle
3:00 AM 38 °F - 37 °F 97% 29.24 in 4 mi West 2.3 mph - - Rain Light Drizzle
3:50 AM 37.4 °F - 37.4 °F 100% 29.24 in 6.2 mi NW 2.3 mph - N/A   Mostly Cloudy
4:00 AM 38 °F - 37 °F 94% 29.26 in 7 mi NW 2.3 mph - - Rain Light Drizzle
4:50 AM 37.4 °F - 37.4 °F 100% 29.27 in 4.3 mi SSW 1.2 mph - N/A   Mostly Cloudy
5:00 AM 38 °F - 37 °F 95% 29.29 in 4 mi SSW 1.2 mph - -   Mist
5:50 AM 37.4 °F 34.9 °F 37.4 °F 100% 29.30 in 4.3 mi West 3.5 mph - N/A   Mostly Cloudy
6:00 AM 38 °F - 37 °F 96% 29.32 in 3 mi West 3.5 mph - -   Mist
6:50 AM 37.4 °F 32.8 °F 35.6 °F 93% 29.33 in 6.2 mi WSW 5.8 mph - N/A   Mostly Cloudy
7:00 AM 37 °F - 35 °F 91% 29.35 in 9 mi WSW 5.8 mph - -   Mostly Cloudy
7:50 AM 35.6 °F 31.7 °F 35.6 °F 100% 29.36 in 6.2 mi WSW 4.6 mph - N/A   Mostly Cloudy
8:00 AM 36 °F - 35 °F 93% 29.38 in 9 mi WSW 4.6 mph - -   Mostly Cloudy
8:32 AM 35.6 °F 29.9 °F 35.6 °F 100% 29.39 in 1.2 mi WSW 6.9 mph - N/A   Overcast
8:50 AM 37.4 °F 32.8 °F 35.6 °F 93% 29.39 in 1.1 mi WSW 5.8 mph - N/A   Overcast
9:00 AM 36 °F - 36 °F 98% 29.41 in 1 mi WSW 5.8 mph - -   Mist
9:50 AM 37.4 °F 33.8 °F 37.4 °F 100% 29.42 in 1.1 mi WSW 4.6 mph - N/A   Overcast
10:00 AM 38 °F - 37 °F 95% 29.43 in 1 mi WSW 4.6 mph - -   Mist
10:50 AM 39.2 °F 35.9 °F 37.4 °F 93% 29.42 in 6.2 mi WSW 4.6 mph - N/A   Overcast
11:00 AM 39 °F - 38 °F 95% 29.44 in 6 mi WSW 4.6 mph - -   Mist
11:50 AM 41.0 °F 36.4 °F 37.4 °F 87% 29.42 in 6.2 mi WSW 6.9 mph - N/A   Mostly Cloudy
12:00 PM 40 °F - 38 °F 88% 29.45 in 16 mi WSW 6.9 mph - -   Mostly Cloudy
12:50 PM 44.6 °F 40.7 °F 39.2 °F 81% 29.42 in 6.2 mi WSW 6.9 mph - N/A   Partly Cloudy
1:00 PM 44 °F - 39 °F 76% 29.44 in 19 mi WSW 6.9 mph - -   Scattered Clouds
1:50 PM 44.6 °F 41.4 °F 39.2 °F 81% 29.44 in 6.2 mi SSW 5.8 mph - N/A   Scattered Clouds
2:00 PM 44 °F - 39 °F 76% 29.46 in 25 mi SSW 5.8 mph - -   Partly Cloudy
2:50 PM 44.6 °F 41.4 °F 39.2 °F 81% 29.44 in 6.2 mi SSW 5.8 mph - N/A   Scattered Clouds
3:00 PM 45 °F - 39 °F 74% 29.45 in 25 mi SSW 5.8 mph - -   Partly Cloudy
3:50 PM 42.8 °F 39.3 °F 39.2 °F 87% 29.44 in 6.2 mi SSW 5.8 mph - N/A   Partly Cloudy
4:00 PM 42 °F - 38 °F 83% 29.47 in 25 mi SSW 5.8 mph - -   Scattered Clouds
4:50 PM 41.0 °F 39.0 °F 37.4 °F 87% 29.44 in 6.2 mi SW 3.5 mph - N/A   Mostly Cloudy
5:00 PM 41 °F - 38 °F 85% 29.47 in 22 mi SW 3.5 mph - -   Scattered Clouds
5:50 PM 39.2 °F 35.9 °F 37.4 °F 93% 29.44 in - SSE 4.6 mph - N/A   Clear
6:00 PM 40 °F - 37 °F 86% 29.47 in 22 mi SSE 4.6 mph - -   Scattered Clouds
6:50 PM 39.2 °F 35.9 °F 37.4 °F 93% 29.42 in - SSE 4.6 mph - N/A   Clear
7:00 PM 38 °F - 36 °F 92% 29.44 in 22 mi SSE 4.6 mph - -   Scattered Clouds
7:50 PM 39.2 °F 35.0 °F 37.4 °F 93% 29.39 in - South 5.8 mph - N/A   Clear
8:00 PM 40 °F - 37 °F 87% 29.42 in 25 mi South 5.8 mph - -   Partly Cloudy
8:50 PM 42.8 °F 37.5 °F 39.2 °F 87% 29.33 in - South 9.2 mph - N/A   Clear
9:00 PM 43 °F - 38 °F 78% 29.36 in 19 mi South 9.2 mph - -   Overcast
9:50 PM 44.6 °F 37.4 °F 39.2 °F 81% 29.27 in 6.2 mi South 16.1 mph - N/A Rain Light Rain
10:00 PM 44 °F - 39 °F 76% 29.29 in 9 mi South 16.1 mph - - Rain Light Rain
10:50 PM 44.6 °F 36.9 °F 39.2 °F 81% 29.21 in 6.2 mi South 18.4 mph 31.1 mph N/A Rain Light Rain
11:00 PM 44 °F - 38 °F 73% 29.22 in 9 mi South 18.4 mph - - Rain Light Rain
11:50 PM 44.6 °F 36.6 °F 41.0 °F 87% 29.12 in 6.2 mi South 19.6 mph 33.4 mph N/A Rain Light Rain